Regional Weather Roundup
Issued by NWS

Home | Current Version | Previous Version | Graphics & Text | Print | Product List | Glossary On
Versions: 1 2 3 4 5 6 7 8 9 10 11 12 13 14 15 16 17 18 19 20 21 22 23 24 25 26 27 28 29 30 31 32 33 34 35 36 37 38 39 40 41 42 43 44 45 46 47 48 49 50
000
ASUS43 KLOT 272300
RWRIL

ILLINOIS REGIONAL WEATHER ROUNDUP
NATIONAL WEATHER SERVICE CHICAGO/ROMEOVILLE IL
500 PM CST THU NOV 27 2014

NOTE: "FAIR" INDICATES FEW OR NO CLOUDS BELOW 12,000 FEET WITH NO
SIGNIFICANT WEATHER AND/OR OBSTRUCTIONS TO VISIBILITY.

* THESE STATIONS ARE NOT UNDER NWS QUALITY CONTROL. THEY ALSO MAY NOT
  REPORT WEATHER SUCH AS PRECIPITATION OR FOG.

ILZ001-002-007-009-015-016-024-280000-
NORTHWEST ILLINOIS

CITY           SKY/WX    TMP DP  RH WIND       PRES   REMARKS
MOLINE         CLEAR     17   2  51 NW10      30.45S WCI   5
STERLING*      PTCLDY    18   9  68 W8        30.43R WCI   7
$$

ILZ003-004-008-010-011-017-018-280000-
NORTH CENTRAL ILLINOIS

CITY           SKY/WX    TMP DP  RH WIND       PRES   REMARKS
ROCKFORD       PTCLDY    19   9  65 NW7       30.43R WCI  10
$$

ILZ005-006-012>014-019>023-280000-
NORTHEAST ILLINOIS

CITY           SKY/WX    TMP DP  RH WIND       PRES   REMARKS
CHICAGO-OHARE  MOCLDY    22  11  62 NW10      30.38R WCI  11
CHICAGO-MIDWAY FLURRIES  25  15  66 NW8       30.39R WCI  16
AURORA         CLOUDY    22  12  65 NW10      30.40R WCI  11
WAUKEGAN       LGT SNOW  19  13  77 NW7       30.39R WCI  10
DUPAGE AIRPORT CLOUDY    21  13  71 N10       30.39R WCI  10
WHEELING       PTCLDY    20  11  68 NW10      30.41R WCI   9
NORTHERLY ISL    N/A     24  14  65 NW7         N/A  WCI  16
$$

LMZ740>746-280000-
SOUTHERN LAKE MICHIGAN

STATION/POSITION SKY/WX   TEMP    WIND        PRES    VSBY  WAVE
                          AIR SEA DIR/SP/G                  HT/PER
                          (F)     (DEG/KT/KT) (MB)    (MI)  (FT/S)
SOUTHERN BUOY              26 42  320/ 17/ 21 1028.2R
WAUKEGAN HARBOR            20     330/  7/ 11   N/A
HARRISON CRIB              23     310/ 11/ 14   N/A
BURNHAM HARBOR             24     300/ 10/ 14   N/A
CALUMET HARBOR             24     300/  9/ 12 1027.5R
MICHIGAN CITY              26     290/ 19/ 23   N/A
$$

ILZ025>027-034>036-040-047-049-050-058-095>099-280000-
WEST-CENTRAL ILLINOIS

CITY           SKY/WX    TMP DP  RH WIND       PRES   REMARKS
QUINCY         CLEAR     19  12  74 NW6       30.46F WCI  11
$$

ILZ028>032-037-038-041>044-048-051>054-059>061-280000-
CENTRAL ILLINOIS

CITY           SKY/WX    TMP DP  RH WIND       PRES   REMARKS
DECATUR        CLOUDY    22  15  75 W12       30.45R WCI  10
PEORIA         CLEAR     20   9  62 W7        30.46R WCI  11
SPRINGFIELD    CLEAR     21  12  68 NW8       30.47R WCI  11
TAYLORVILLE    NOT AVBL
$$

ILZ033-039-045-046-055>057-062-063-280000-
EAST-CENTRAL ILLINOIS

CITY           SKY/WX    TMP DP  RH WIND       PRES   REMARKS
CHAMPAIGN      CLOUDY    23  19  85 W12       30.42R WCI  12
MATTOON        MOCLDY    22  16  78 NW14      30.44R WCI   9
$$

ILZ079-100>102-280000-
SOUTHWEST ILLINOIS

CITY           SKY/WX    TMP DP  RH WIND       PRES   REMARKS
ALTON          CLEAR     28  18  64 NW6       30.47R WCI  22
CAHOKIA*       CLEAR     32  20  61 NW12      30.46S WCI  23
$$

ILZ064>066-069>071-074>076-080>082-084>086-088>090-092>094-280000-
SOUTH-CENTRAL ILLINOIS

CITY           SKY/WX    TMP DP  RH WIND       PRES   REMARKS
CARBONDALE     CLEAR     31  24  75 N3        30.47S
MARION         PTCLDY    32  25  74 NW6       30.47S WCI  26
MT. VERNON     PTCLDY    28  19  69 CALM      30.46S
$$

ILZ067-068-072-073-078-083-087-091-280000-
SOUTHEAST ILLINOIS

CITY           SKY/WX    TMP DP  RH WIND       PRES   REMARKS
LAWRENCEVILLE  CLOUDY    29  21  72 W12       30.45S WCI  19
$$

ABBREVIATIONS USED IN REMARKS
   TC - TEMPERATURE IN CELSIUS
  WCI - WIND CHILL INDEX
   HX - HEAT INDEX
  VSB - VISIBILITY
$$



USA.gov is the U.S. government's official web portal to all federal, state and local government web resources and services.